STARLINK-35087 (65541 NORAD) Tracking and Keplerian Element Data

This shows tracking and keplerian element data for the satellite.

Feedback or suggestion? Click here.




ElementValue
Catalog65541
NameSTARLINK-35087
Epoch Orbit1716
Epoch Day354.15401503
Epoch Year2025
RAAN61.4074
Inclination97.6032
Eccentricity6.54E-05
Argument of Perigee114.4303
Mean Anonmoly245.6992
Mean Motion15.05650797
Decay Rate7.317E-05
L11 65541U 25200X 25354.15401503 .00007317 00000+0 51080-3 0 9992
L22 65541 97.6032 61.4074 0000654 114.4303 245.6992 15.05650797 17160



Live tracking and technical data element details for STARLINK-35087 (NORAD 65541). STARLINK-35087 can be tracked NOW for your location showing map with azimuth and elevation plus other details from your city location.







IsCatalogInMostPopularTable: catalog: 65541, numindb: 3
Update: records affected: 1



GetName: 65541 STARLINK-35087

Hit Count: updated at: Sat, 07 Feb 2026 08:47:05 GMT